User: anonymous   Login
Location: Simi Valley
(34.2690°N, 118.7810°W)
Time: 14:55:04
(UTC-07:00)
Language:

SAR-Lupe-1 - Orbit

View from above orbital plane
View from above orbital plane
View from above satellite
View from above satellite

Ground track
Ground track

The orbit data is extracted from the following two-line orbital elements,

1 29658U 06060A   18143.90266557 0.00001000  00000-0  37013-4 0    01
2 29658  98.1138 230.4336 0004000 317.3595  42.6403 15.27697951    01
Epoch (UTC): 23 May 2018 21:39:50
Eccentricity: 0.0004000
inclination: 98.1138°
perigee height: 480 km
apogee height: 485 km
right ascension of ascending node: 230.4336°
argument of perigee: 317.3595°
revolutions per day: 15.27697951
mean anomaly at epoch: 42.6403°
orbit number at epoch: 0

The dashed part of the orbit path shows where the satellite is in the earth's shadow,  

DLR